Location: Le Petit-Vavre
(46.5081°N, 1.5239°E)
Time: 15:33:35
(UTC+00:00)

USA 305 - Pass Details

Date: 03 March 2021
Orbit: 567 x 574 km, 54.0° (Epoch: 13 April)

Event Time Altitude Azimuth Distance (km) Brightness Sun altitude
Rises 18:03:27 0° 268° (W) 2,778 9.5 -4.3°
Reaches altitude 10° 18:05:50 10° 277° (W) 1,880 7.3 -4.7°
Maximum altitude 18:09:48 36° 345° (NNW) 917 4.1 -5.4°
Drops below altitude 10° 18:13:47 10° 53° (NE) 1,879 5.0 -6.1°
Enters shadow 18:14:59 - 59° (ENE) 2,323 5.5 -6.3°
